Regional Weather Roundup
Issued by NWS

Home | Current Version | Previous Version | Graphics & Text | Print | Product List | Glossary On
Versions: 1 2 3 4 5 6 7 8 9 10 11 12 13 14 15 16 17 18 19 20 21 22 23 24 25 26 27 28 29 30 31 32 33 34 35 36 37 38 39 40 41 42 43 44 45 46 47 48 49 50
000
ASUS43 KFSD 270402
RWRSD

WEATHER ROUNDUP FOR SOUTH DAKOTA
NATIONAL WEATHER SERVICE SIOUX FALLS SD
1100 PM CDT WED JUL 26 2017

NOTE: "FAIR" INDICATES FEW OR NO CLOUDS BELOW 12,000 FEET WITH NO
SIGNIFICANT WEATHER AND/OR OBSTRUCTIONS TO VISIBILITY.


SDZ001>005-009-010-012>017-270500-
NORTHWEST AND NORTH CENTRAL SOUTH DAKOTA

CITY           SKY/WX    TMP DP  RH WIND       PRES   REMARKS
BUFFALO          N/A     73  51  46 SE8       30.06R
FAITH            N/A     75  52  44 SE12      30.13R
MOBRIDGE       CLEAR     73  57  57 E9        30.08R
$$

SDZ012>016-024>037-041>051-057-063-072>074-270500-
SOUTHWEST AND SOUTH CENTRAL SOUTH DAKOTA

CITY           SKY/WX    TMP DP  RH WIND       PRES   REMARKS
RAPID CTY ARPT CLEAR     72  49  44 SE9       30.16R
PIERRE         CLEAR     72  54  53 SE6       30.10R
CUSTER         CLOUDY    66  50  56 SE3       30.31R
ELLSWORTH AFB  CLEAR     74  50  42 SE10      30.15R
PHILIP         CLEAR     73  53  49 SE3       30.12R
PINE RIDGE     PTCLDY    73  58  59 E5        30.18R
SPEARFISH      FAIR      70  50  49 SE5       30.19R
WINNER         FAIR      72  59  63 SE8       30.13R
$$

SDZ004>011-016>023-039-040-270500-
NORTHEAST SOUTH DAKOTA

CITY           SKY/WX    TMP DP  RH WIND       PRES   REMARKS
ABERDEEN       CLEAR     69  61  75 NE5       30.10R
WATERTOWN      CLEAR     66  60  81 N5        30.10R
BROOKINGS      CLEAR     67  62  84 CALM      30.10R
SISSETON         N/A     66  62  87 NW3       30.08R
$$

SDZ017-020-022-023-036>040-048>070-270500-
SOUTHEAST SOUTH DAKOTA

CITY           SKY/WX    TMP DP  RH WIND       PRES   REMARKS
SIOUX FALLS    CLEAR     68  63  84 N5        30.08R
HURON          CLEAR     65  62  90 N3        30.08S
CHAMBERLAIN    CLEAR     73  62  68 CALM      30.12R
MITCHELL       CLEAR     69  64  84 CALM      30.09R
YANKTON        CLEAR     71  62  73 N9        30.08R
$$

ABBREVIATIONS USED IN REMARKS
   TC - TEMPERATURE IN CELSIUS
  WCI - WIND CHILL INDEX
   HX - HEAT INDEX
  VSB - VISIBILITY




USA.gov is the U.S. government's official web portal to all federal, state and local government web resources and services.